Weather History for EDQM - March, 2013

Change the Weather History Date:

Tuesday, March 5, 2013

  Actual Average Record
Temperature  
Mean Temperature 36 °F -  
Max Temperature 45 °F 37 °F 50 °F (2002)
Min Temperature 26 °F 27 °F 14 °F (2004)
Degree Days  
Heating Degree Days 30    
Moisture  
Dew Point 23 °F    
Average Humidity 59    
Maximum Humidity 75    
Minimum Humidity 34    
Precipitation  
Precipitation 0.00 in - - ()
Sea Level Pressure  
Sea Level Pressure 29.93 in    
Wind  
Wind Speed 7 mph ()    
Max Wind Speed 13 mph    
Max Gust Speed -    
Visibility 8.5 miles    
Events      
Averages and records for this station are not official NWS values.
T = Trace of Precipitation, MM = Missing Value Source: Averaged Metar Reports

Daily Weather History Graph

Daily Weather History Graph

Search for Another Location

Airport or City:

Trip Planner

Search our weather history database for the weather conditions in past years. The results will help you decide how hot, cold, wet, or windy it might be!

Date:

Astronomy

Mar. 05, 2013 Rise Set
Actual Time 6:47 AM CET 6:01 PM CET
Civil Twilight 6:15 AM CET 6:33 PM CET
Nautical Twilight 5:37 AM CET 7:11 PM CET
Astronomical Twilight 4:59 AM CET 7:49 PM CET
Moon 2:10 AM CET (3/5) 10:56 AM CET (3/5)
Length of Visible Light 12h 18m
Length of Day
11h 13m
Last Quarter, 44% of the Moon is Illuminated
Mar 5
Last Quarter
Mar 11
New
Mar 19
First Quarter
Mar 27
Full
Apr 3
Last Quarter

Hourly Weather History & Observations

Time (CET) Temp. Windchill Dew Point Humidity Pressure Visibility Wind Dir Wind Speed Gust Speed Precip Events Conditions
12:00 AM 32 °F - 23 °F 59% 30.13 in 10 mi SE 11.2 mph - -  
12:20 AM 32.0 °F 24.8 °F 19.4 °F 60% 30.04 in 6.2 mi SE 8.1 mph - N/A   Unknown
12:50 AM 32.0 °F 25.6 °F 19.4 °F 60% 30.04 in 6.2 mi SSE 6.9 mph - N/A   Unknown
1:00 AM 32 °F - 22 °F 56% 30.12 in 10 mi SSE 6.7 mph - -  
1:20 AM 32.0 °F 26.4 °F 19.4 °F 60% 30.04 in 6.2 mi SE 5.8 mph - N/A   Unknown
1:50 AM 30.2 °F 24.3 °F 19.4 °F 64% 30.01 in 6.2 mi SE 5.8 mph - N/A   Unknown
2:00 AM 31 °F - 22 °F 57% 30.11 in 10 mi SSE 6.7 mph - -  
2:20 AM 28.4 °F 21.2 °F 19.4 °F 69% 30.01 in 6.2 mi South 6.9 mph - N/A   Unknown
2:50 AM 28.4 °F 21.2 °F 17.6 °F 64% 29.98 in 6.2 mi South 6.9 mph - N/A   Unknown
3:00 AM 29 °F - 21 °F 63% 30.09 in 9 mi SE 8.9 mph - -  
3:20 AM 30.2 °F 23.4 °F 19.4 °F 64% 29.98 in 6.2 mi SE 6.9 mph - N/A   Unknown
3:50 AM 28.4 °F 20.4 °F 19.4 °F 69% 29.98 in 6.2 mi SSE 8.1 mph - N/A   Unknown
4:20 AM 30.2 °F 22.6 °F 19.4 °F 64% 29.98 in 6.2 mi SSE 8.1 mph - N/A   Unknown
4:50 AM 28.4 °F 19.7 °F 19.4 °F 69% 29.98 in 6.2 mi SE 9.2 mph - N/A   Unknown
5:00 AM 29 °F - 22 °F 65% 30.06 in 7 mi SSE 11.2 mph - -  
5:20 AM 26.6 °F 18.2 °F 19.4 °F 74% 29.98 in 6.2 mi SSE 8.1 mph - N/A   Unknown
5:50 AM 28.4 °F 18.5 °F 19.4 °F 69% 29.95 in 6.2 mi SE 11.5 mph - N/A   Unknown
6:00 AM 28 °F - 22 °F 69% 30.06 in 12 mi SSE 13.4 mph - -   Partly Cloudy
6:20 AM 26.6 °F 17.5 °F 17.6 °F 69% 29.95 in 6.2 mi SE 9.2 mph - N/A   Unknown
6:50 AM 26.6 °F 20.0 °F 19.4 °F 74% 29.95 in 6.2 mi SSE 5.8 mph - N/A   Unknown
7:00 AM 28 °F - 22 °F 69% 30.05 in 16 mi SSE 6.7 mph - -  
7:20 AM 26.6 °F 17.5 °F 19.4 °F 74% 29.95 in 6.2 mi SE 9.2 mph - N/A   Unknown
7:50 AM 28.4 °F 20.4 °F 19.4 °F 69% 29.95 in - SE 8.1 mph - N/A   Clear
8:00 AM 29 °F - 22 °F 67% 30.04 in 14 mi SE 8.9 mph - -  
8:20 AM 28.4 °F 23.3 °F 19.4 °F 69% 29.95 in - South 4.6 mph - N/A   Clear
8:50 AM 30.2 °F 24.3 °F 21.2 °F 69% 29.95 in - SSE 5.8 mph - N/A   Clear
9:00 AM 31 °F - 23 °F 61% 30.02 in 12 mi SE 11.2 mph - -  
9:20 AM 32.0 °F 26.4 °F 21.2 °F 64% 29.95 in - SSE 5.8 mph - N/A   Clear
9:50 AM 33.8 °F 28.6 °F 21.2 °F 60% 29.95 in - SSE 5.8 mph - N/A   Clear
10:50 AM 35.6 °F 28.6 °F 23.0 °F 60% 29.92 in - SSE 9.2 mph - N/A   Clear
11:00 AM 36 °F - 24 °F 51% 29.99 in 12 mi SE 6.7 mph - -  
11:20 AM 37.4 °F 29.8 °F 23.0 °F 56% 29.92 in - SSE 11.5 mph - N/A   Clear
11:50 AM 39.2 °F 32.5 °F 23.0 °F 52% 29.92 in - SSE 10.4 mph - N/A   Clear
12:00 PM 39 °F - 25 °F 44% 29.97 in 12 mi SSE 8.9 mph - -  
12:20 PM 39.2 °F 33.6 °F 23.0 °F 52% 29.92 in - SSE 8.1 mph - N/A   Clear
12:50 PM 41.0 °F 35.8 °F 23.0 °F 49% 29.89 in - SSE 8.1 mph - N/A   Clear
1:00 PM 41 °F - 25 °F 40% 29.94 in 14 mi SSE 6.7 mph - -  
1:20 PM 42.8 °F 38.0 °F 24.8 °F 49% 29.89 in - SSE 8.1 mph - N/A   Clear
1:50 PM 42.8 °F 37.5 °F 23.0 °F 46% 29.89 in - SSE 9.2 mph - N/A   Clear
2:00 PM 43 °F - 26 °F 37% 29.92 in 16 mi SSE 8.9 mph - -  
2:20 PM 42.8 °F 38.6 °F 24.8 °F 49% 29.86 in - SSE 6.9 mph - N/A   Clear
2:50 PM 42.8 °F 38.6 °F 24.8 °F 49% 29.86 in - SSE 6.9 mph - N/A   Clear
3:00 PM 45 °F - 26 °F 34% 29.89 in 19 mi SSE 8.9 mph - -  
3:20 PM 42.8 °F 38.0 °F 24.8 °F 49% 29.86 in - SE 8.1 mph - N/A   Clear
3:50 PM 44.6 °F 40.2 °F 23.0 °F 43% 29.86 in - SE 8.1 mph - N/A   Clear
4:20 PM 44.6 °F 40.7 °F 23.0 °F 43% 29.83 in - SE 6.9 mph - N/A   Clear
4:50 PM 42.8 °F 38.6 °F 24.8 °F 49% 29.83 in - SE 6.9 mph - N/A   Clear
5:00 PM 45 °F - 27 °F 36% 29.86 in 19 mi SSE 6.7 mph - -  
5:20 PM 42.8 °F 38.6 °F 24.8 °F 49% 29.83 in - SSE 6.9 mph - N/A   Clear
5:50 PM 41.0 °F 36.4 °F 24.8 °F 53% 29.83 in - SSE 6.9 mph - N/A   Clear
6:00 PM 41 °F - 28 °F 49% 29.88 in 7 mi SE 6.7 mph - -  
6:20 PM 39.2 °F 35.0 °F 24.8 °F 56% 29.83 in - SE 5.8 mph - N/A   Clear
6:50 PM 39.2 °F 37.0 °F 24.8 °F 56% 29.83 in - Variable 3.5 mph - N/A   Clear
7:00 PM 38 °F - 28 °F 58% 29.88 in 5 mi SE 6.7 mph - -  
7:20 PM 39.2 °F 37.0 °F 24.8 °F 56% 29.83 in - SE 3.5 mph - N/A   Clear
7:50 PM 37.4 °F 32.1 °F 24.8 °F 60% 29.83 in - SSE 6.9 mph - N/A   Clear
8:00 PM 36 °F - 28 °F 64% 29.89 in 4 mi SSE 4.5 mph - -   Light Haze
8:20 PM 37.4 °F 32.1 °F 24.8 °F 60% 29.83 in - SE 6.9 mph - N/A   Clear
8:50 PM 35.6 °F 29.9 °F 24.8 °F 65% 29.80 in - SSE 6.9 mph - N/A   Clear
9:00 PM 34 °F - 27 °F 68% 29.88 in 4 mi SSE 4.5 mph - -   Light Haze
9:20 PM 35.6 °F 30.7 °F 26.6 °F 70% 29.80 in - South 5.8 mph - N/A   Clear
9:50 PM 35.6 °F 31.7 °F 24.8 °F 65% 29.80 in 6.2 mi South 4.6 mph - N/A   Unknown
10:20 PM 33.8 °F 27.7 °F 24.8 °F 70% 29.80 in 6.2 mi SSE 6.9 mph - N/A   Unknown
10:50 PM 33.8 °F 28.6 °F 24.8 °F 70% 29.80 in 6.2 mi South 5.8 mph - N/A   Unknown
11:00 PM 33 °F - 28 °F 74% 29.87 in 3 mi SSE 6.7 mph - -   Mist
11:20 PM 33.8 °F 28.6 °F 26.6 °F 75% 29.80 in 6.2 mi South 5.8 mph - N/A   Unknown
11:50 PM 33.8 °F 29.6 °F 24.8 °F 70% 29.77 in 6.2 mi South 4.6 mph - N/A   Unknown